START_TIME,STEP,MOV.,A46,t_acc.,A13,t_acc.,M47,t_acc.,A17,t_acc.,A28,t_acc.,M38,t_acc.
1979-07-06 06:00:26.190 ,0,1,,0,560.,4.8,152.,4.8,,0,0.,4.8,180.,4.8
1979-07-06 06:00:30.990 ,0,1,,0,560.,4.8,128.,4.8,,0,0.,4.8,140.,4.8
1979-07-06 06:00:35.790 ,0,1,,0,480.,4.8,124.,4.8,,0,0.,4.8,164.,4.8
1979-07-06 06:00:40.590 ,0,1,,0,1.,4.8,0.,4.8,,0,0.,4.8,228.,4.8
1979-07-06 06:00:45.390 ,0,1,,0,0.,4.8,0.,4.8,,0,0.,4.8,224.,4.8
1979-07-06 06:00:50.190 ,4,1,,0,1.,4.8,0.,4.8,,0,0.,4.8,176.,4.8
1979-07-06 06:00:54.990 ,4,1,,0,1.,4.8,0.,4.8,,0,0.,4.8,148.,4.8
1979-07-06 06:00:59.790 ,4,1,,0,96.,4.8,26.,4.8,,0,0.,4.8,140.,4.8
1979-07-06 06:01:04.590 ,4,1,,0,688.,4.8,188.,4.8,,0,0.,4.8,256.,4.8
1979-07-06 06:01:09.390 ,4,1,,0,1248.,4.8,336.,4.8,,0,0.,4.8,424.,4.8
1979-07-06 06:01:14.190 ,7,1,,0,1184.,4.8,320.,4.8,,0,0.,4.8,432.,4.8
1979-07-06 06:01:18.990 ,7,1,,0,960.,4.8,244.,4.8,,0,0.,4.8,352.,4.8
1979-07-06 06:01:23.790 ,7,1,,0,768.,4.8,200.,4.8,,0,0.,4.8,272.,4.8
1979-07-06 06:01:28.590 ,7,1,,0,1.,4.8,0.,4.8,,0,0.,4.8,0.,4.8
1979-07-06 06:01:33.390 ,7,1,,0,0.,4.8,0.,4.8,,0,0.,4.8,0.,4.8
1979-07-06 06:01:38.190 ,3,1,,0,0.,4.8,0.,4.8,,0,0.,4.8,164.,4.8
1979-07-06 06:01:42.990 ,3,1,,0,0.,4.8,0.,4.8,,0,0.,4.8,296.,4.8
1979-07-06 06:01:47.790 ,3,1,,0,216.,4.8,43.,4.8,,0,0.,4.8,360.,4.8
1979-07-06 06:01:52.590 ,3,1,,0,1248.,4.8,312.,4.8,,0,0.,4.8,392.,4.8
1979-07-06 06:01:57.390 ,3,1,,0,816.,4.8,228.,4.8,,0,0.,4.8,264.,4.8
1979-07-06 06:02:02.190 ,0,1,,0,656.,4.8,176.,4.8,,0,0.,4.8,176.,4.8
1979-07-06 06:02:06.990 ,0,1,,0,560.,4.8,132.,4.8,,0,0.,4.8,118.,4.8
1979-07-06 06:02:11.790 ,0,1,,0,440.,4.8,104.,4.8,,0,0.,4.8,172.,4.8
1979-07-06 06:02:16.590 ,0,1,,0,0.,4.8,0.,4.8,,0,0.,4.8,244.,4.8
1979-07-06 06:02:21.390 ,0,1,,0,0.,4.8,0.,4.8,,0,0.,4.8,244.,4.8
1979-07-06 06:02:26.190 ,4,1,,0,1.,4.8,0.,4.8,,0,0.,4.8,184.,4.8
1979-07-06 06:02:30.990 ,4,1,,0,0.,4.8,0.,4.8,,0,0.,4.8,132.,4.8
1979-07-06 06:02:35.790 ,4,1,,0,102.,4.8,22.,4.8,,0,0.,4.8,140.,4.8
1979-07-06 06:02:40.590 ,4,1,,0,768.,4.8,200.,4.8,,0,0.,4.8,264.,4.8
1979-07-06 06:02:45.390 ,4,1,,0,1088.,4.8,272.,4.8,,0,0.,4.8,400.,4.8
1979-07-06 06:02:50.190 ,7,1,,0,1056.,4.8,304.,4.8,,0,0.,4.8,352.,4.8
1979-07-06 06:02:54.990 ,7,1,,0,944.,4.8,212.,4.8,,0,0.,4.8,344.,4.8
1979-07-06 06:02:59.790 ,7,1,,0,720.,4.8,188.,4.8,,0,0.,4.8,256.,4.8
1979-07-06 06:03:04.590 ,7,1,,0,0.,4.8,0.,4.8,,0,0.,4.8,0.,4.8
1979-07-06 06:03:09.390 ,7,1,,0,1.,4.8,0.,4.8,,0,0.,4.8,0.,4.8
1979-07-06 06:03:14.190 ,3,1,,0,0.,4.8,0.,4.8,,0,0.,4.8,172.,4.8
1979-07-06 06:03:18.990 ,3,1,,0,0.,4.8,0.,4.8,,0,0.,4.8,296.,4.8
1979-07-06 06:03:23.790 ,3,1,,0,180.,4.8,48.,4.8,,0,0.,4.8,344.,4.8
1979-07-06 06:03:28.590 ,3,1,,0,1024.,4.8,264.,4.8,,0,0.,4.8,352.,4.8
1979-07-06 06:03:33.390 ,3,1,,0,784.,4.8,212.,4.8,,0,0.,4.8,296.,4.8
1979-07-06 06:03:38.190 ,0,1,,0,656.,4.8,152.,4.8,,0,0.,4.8,192.,4.8
1979-07-06 06:03:42.990 ,0,1,,0,560.,4.8,148.,4.8,,0,0.,4.8,128.,4.8
1979-07-06 06:03:47.790 ,0,1,,0,488.,4.8,124.,4.8,,0,0.,4.8,164.,4.8
1979-07-06 06:03:52.590 ,0,1,,0,0.,4.8,0.,4.8,,0,0.,4.8,244.,4.8
1979-07-06 06:03:57.390 ,0,1,,0,0.,4.8,0.,4.8,,0,0.,4.8,272.,4.8
1979-07-06 06:04:02.190 ,4,1,,0,0.,4.8,0.,4.8,,0,0.,4.8,212.,4.8
1979-07-06 06:04:06.990 ,4,1,,0,0.,4.8,0.,4.8,,0,0.,4.8,192.,4.8
1979-07-06 06:04:11.790 ,4,1,,0,90.,4.8,14.,4.8,,0,0.,4.8,136.,4.8
1979-07-06 06:04:16.590 ,4,1,,0,656.,4.8,180.,4.8,,0,0.,4.8,212.,4.8
1979-07-06 06:04:21.390 ,4,1,,0,848.,4.8,216.,4.8,,0,0.,4.8,288.,4.8
1979-07-06 06:04:26.190 ,7,1,,0,864.,4.8,208.,4.8,,0,0.,4.8,312.,4.8
1979-07-06 06:04:30.990 ,7,1,,0,864.,4.8,264.,4.8,,0,0.,4.8,272.,4.8
1979-07-06 06:04:35.790 ,7,1,,0,688.,4.8,188.,4.8,,0,0.,4.8,236.,4.8
1979-07-06 06:04:40.590 ,7,1,,0,0.,4.8,0.,4.8,,0,0.,4.8,0.,4.8
1979-07-06 06:04:45.390 ,7,1,,0,0.,4.8,0.,4.8,,0,0.,4.8,0.,4.8
1979-07-06 06:04:50.190 ,3,1,,0,0.,4.8,0.,4.8,,0,0.,4.8,144.,4.8
1979-07-06 06:04:54.990 ,3,1,,0,1.,4.8,0.,4.8,,0,0.,4.8,240.,4.8
1979-07-06 06:04:59.790 ,3,1,,0,128.,4.8,29.,4.8,,0,0.,4.8,296.,4.8
1979-07-06 06:05:04.590 ,3,1,,0,848.,4.8,216.,4.8,,0,0.,4.8,256.,4.8
1979-07-06 06:05:09.390 ,3,1,,0,656.,4.8,176.,4.8,,0,0.,4.8,220.,4.8
1979-07-06 06:05:14.190 ,0,1,,0,576.,4.8,152.,4.8,,0,0.,4.8,172.,4.8
1979-07-06 06:05:18.990 ,0,1,,0,544.,4.8,132.,4.8,,0,0.,4.8,140.,4.8
1979-07-06 06:05:23.790 ,0,1,,0,512.,4.8,110.,4.8,,0,0.,4.8,208.,4.8
1979-07-06 06:05:28.590 ,0,1,,0,0.,4.8,0.,4.8,,0,0.,4.8,244.,4.8
1979-07-06 06:05:33.390 ,0,1,,0,1.,4.8,0.,4.8,,0,0.,4.8,244.,4.8
1979-07-06 06:05:38.190 ,0,0,,0,0.,4.8,0.,4.8,,0,0.,4.8,228.,4.8
1979-07-06 06:05:42.990 ,0,0,,0,0.,4.8,0.,4.8,,0,0.,4.8,156.,4.8
1979-07-06 06:05:47.790 ,0,0,,0,82.,4.8,19.,4.8,,0,0.,4.8,108.,4.8
1979-07-06 06:05:52.590 ,0,0,,0,592.,4.8,160.,4.8,,0,0.,4.8,184.,4.8
1979-07-06 06:05:57.390 ,0,0,,0,704.,4.8,176.,4.8,,0,0.,4.8,228.,4.8
1979-07-06 06:06:02.190 ,0,0,,0,736.,4.8,196.,4.8,,0,0.,4.8,240.,4.8
1979-07-06 06:06:06.990 ,0,0,,0,720.,4.8,172.,4.8,,0,0.,4.8,236.,4.8
1979-07-06 06:06:11.790 ,0,0,,0,640.,4.8,164.,4.8,,0,0.,4.8,200.,4.8
1979-07-06 06:06:16.590 ,0,0,,0,0.,4.8,0.,4.8,,0,0.,4.8,0.,4.8
1979-07-06 06:06:21.390 ,0,0,,0,0.,4.8,0.,4.8,,0,0.,4.8,0.,4.8
1979-07-06 06:06:30.390 ,0,0,,0,,0,,0,,0,,0,,0
1979-07-06 06:06:35.190 ,0,0,,0,0.,4.8,0.,4.8,,0,0.,4.8,232.,4.8
1979-07-06 06:06:39.990 ,0,0,,0,136.,4.8,32.,4.8,,0,0.,4.8,256.,4.8
1979-07-06 06:06:44.790 ,0,0,,0,736.,4.8,208.,4.8,,0,0.,4.8,256.,4.8
1979-07-06 06:06:49.590 ,0,0,,0,736.,4.8,184.,4.8,,0,0.,4.8,256.,4.8
1979-07-06 06:06:50.190 ,0,0,,0,736.,4.8,184.,4.8,,0,0.,4.8,256.,4.8
1979-07-06 06:06:54.990 ,0,0,,0,736.,4.8,180.,4.8,,0,0.,4.8,244.,4.8
1979-07-06 06:06:59.790 ,0,0,,0,640.,4.8,180.,4.8,,0,0.,4.8,240.,4.8
1979-07-06 06:07:04.590 ,0,0,,0,1.,4.8,0.,4.8,,0,0.,4.8,224.,4.8
1979-07-06 06:07:09.390 ,0,0,,0,1.,4.8,0.,4.8,,0,0.,4.8,256.,4.8
1979-07-06 06:07:14.190 ,4,0,,0,1.,4.8,0.,4.8,,0,0.,4.8,280.,4.8
1979-07-06 06:07:18.990 ,4,0,,0,0.,4.8,0.,4.8,,0,0.,4.8,240.,4.8
1979-07-06 06:07:23.790 ,4,0,,0,116.,4.8,27.,4.8,,0,0.,4.8,240.,4.8
1979-07-06 06:07:28.590 ,4,0,,0,656.,4.8,156.,4.8,,0,0.,4.8,248.,4.8
1979-07-06 06:07:33.390 ,4,0,,0,656.,4.8,188.,4.8,,0,0.,4.8,236.,4.8
1979-07-06 06:07:38.190 ,4,0,,0,592.,4.8,140.,4.8,,0,0.,4.8,216.,4.8
1979-07-06 06:07:42.990 ,4,0,,0,640.,4.8,160.,4.8,,0,0.,4.8,224.,4.8
1979-07-06 06:07:47.790 ,4,0,,0,512.,4.8,128.,4.8,,0,0.,4.8,208.,4.8
1979-07-06 06:07:52.590 ,4,0,,0,1.,4.8,0.,4.8,,0,0.,4.8,216.,4.8
1979-07-06 06:07:57.390 ,4,0,,0,1.,4.8,0.,4.8,,0,0.,4.8,224.,4.8
1979-07-06 06:08:02.190 ,3,0,,0,1.,4.8,0.,4.8,,0,0.,4.8,204.,4.8
1979-07-06 06:08:06.990 ,3,0,,0,0.,4.8,0.,4.8,,0,0.,4.8,176.,4.8
1979-07-06 06:08:11.790 ,3,0,,0,104.,4.8,28.,4.8,,0,0.,4.8,148.,4.8
1979-07-06 06:08:16.590 ,3,0,,0,528.,4.8,124.,4.8,,0,0.,4.8,152.,4.8
1979-07-06 06:08:21.390 ,3,0,,0,528.,4.8,126.,4.8,,0,0.,4.8,136.,4.8
1979-07-06 06:08:26.190 ,3,0,,0,560.,4.8,140.,4.8,,0,0.,4.8,160.,4.8
1979-07-06 06:08:30.990 ,3,0,,0,512.,4.8,128.,4.8,,0,0.,4.8,132.,4.8
1979-07-06 06:08:35.790 ,3,0,,0,432.,4.8,114.,4.8,,0,0.,4.8,132.,4.8
1979-07-06 06:08:40.590 ,3,0,,0,0.,4.8,0.,4.8,,0,0.,4.8,168.,4.8
1979-07-06 06:08:45.390 ,3,0,,0,0.,4.8,0.,4.8,,0,0.,4.8,156.,4.8
1979-07-06 06:08:50.190 ,2,0,,0,0.,4.8,0.,4.8,,0,0.,4.8,136.,4.8
1979-07-06 06:08:54.990 ,2,0,,0,0.,4.8,0.,4.8,,0,0.,4.8,144.,4.8
1979-07-06 06:08:59.790 ,2,0,,0,92.,4.8,26.,4.8,,0,0.,4.8,156.,4.8
1979-07-06 06:09:04.590 ,2,0,,0,488.,4.8,140.,4.8,,0,0.,4.8,160.,4.8
1979-07-06 06:09:09.390 ,2,0,,0,512.,4.8,140.,4.8,,0,0.,4.8,148.,4.8
1979-07-06 06:09:14.190 ,2,0,,0,512.,4.8,136.,4.8,,0,0.,4.8,164.,4.8
1979-07-06 06:09:18.990 ,2,0,,0,512.,4.8,144.,4.8,,0,0.,4.8,160.,4.8
1979-07-06 06:09:23.790 ,2,0,,0,472.,4.8,128.,4.8,,0,0.,4.8,148.,4.8
1979-07-06 06:09:28.590 ,2,0,,0,0.,4.8,0.,4.8,,0,0.,4.8,148.,4.8
1979-07-06 06:09:33.390 ,2,0,,0,0.,4.8,0.,4.8,,0,0.,4.8,160.,4.8
1979-07-06 06:09:38.190 ,1,0,,0,0.,4.8,0.,4.8,,0,0.,4.8,152.,4.8
1979-07-06 06:09:42.990 ,1,0,,0,0.,4.8,0.,4.8,,0,0.,4.8,176.,4.8
1979-07-06 06:09:47.790 ,1,0,,0,92.,4.8,29.,4.8,,0,0.,4.8,228.,4.8
1979-07-06 06:09:52.590 ,1,0,,0,592.,4.8,144.,4.8,,0,0.,4.8,220.,4.8
1979-07-06 06:09:57.390 ,1,0,,0,608.,4.8,144.,4.8,,0,0.,4.8,244.,4.8
1979-07-06 06:10:02.190 ,1,0,,0,576.,4.8,144.,4.8,,0,0.,4.8,248.,4.8
1979-07-06 06:10:06.990 ,1,0,,0,608.,4.8,184.,4.8,,0,0.,4.8,232.,4.8
1979-07-06 06:10:11.790 ,1,0,,0,488.,4.8,112.,4.8,,0,0.,4.8,252.,4.8
1979-07-06 06:10:16.590 ,1,0,,0,1.,4.8,0.,4.8,,0,0.,4.8,236.,4.8
1979-07-06 06:10:21.390 ,1,0,,0,0.,4.8,0.,4.8,,0,0.,4.8,240.,4.8
1979-07-06 06:10:26.190 ,0,0,,0,0.,4.8,0.,4.8,,0,0.,4.8,224.,4.8
1979-07-06 06:10:30.990 ,0,0,,0,0.,4.8,0.,4.8,,0,0.,4.8,248.,4.8
1979-07-06 06:10:35.790 ,0,0,,0,110.,4.8,25.,4.8,,0,0.,4.8,224.,4.8
1979-07-06 06:10:40.590 ,0,0,,0,736.,4.8,172.,4.8,,0,0.,4.8,244.,4.8
1979-07-06 06:10:45.390 ,0,0,,0,768.,4.8,172.,4.8,,0,0.,4.8,256.,4.8
1979-07-06 06:10:50.190 ,0,0,,0,720.,4.8,164.,4.8,,0,0.,4.8,248.,4.8
1979-07-06 06:10:54.990 ,0,0,,0,704.,4.8,168.,4.8,,0,0.,4.8,232.,4.8
1979-07-06 06:10:59.790 ,0,0,,0,592.,4.8,136.,4.8,,0,0.,4.8,232.,4.8
1979-07-06 06:11:04.590 ,0,0,,0,1.,4.8,0.,4.8,,0,0.,4.8,216.,4.8
1979-07-06 06:11:09.390 ,0,0,,0,0.,4.8,0.,4.8,,0,0.,4.8,240.,4.8
1979-07-06 06:11:14.190 ,0,0,,0,0.,4.8,0.,4.8,,0,0.,4.8,216.,4.8
1979-07-06 06:11:18.990 ,0,0,,0,0.,4.8,0.,4.8,,0,0.,4.8,256.,4.8
1979-07-06 06:11:23.790 ,0,0,,0,100.,4.8,25.,4.8,,0,0.,4.8,236.,4.8
1979-07-06 06:11:28.590 ,0,0,,0,720.,4.8,148.,4.8,,0,0.,4.8,236.,4.8
1979-07-06 06:11:33.390 ,0,0,,0,704.,4.8,140.,4.8,,0,0.,4.8,220.,4.8
1979-07-06 06:11:38.190 ,0,0,,0,656.,4.8,144.,4.8,,0,0.,4.8,244.,4.8
1979-07-06 06:11:42.990 ,0,0,,0,688.,4.8,148.,4.8,,0,0.,4.8,196.,4.8
1979-07-06 06:11:47.790 ,0,0,,0,560.,4.8,104.,4.8,,0,0.,4.8,216.,4.8
1979-07-06 06:11:52.590 ,0,0,,0,0.,4.8,0.,4.8,,0,0.,4.8,224.,4.8
1979-07-06 06:11:57.390 ,0,0,,0,1.,4.8,0.,4.8,,0,0.,4.8,232.,4.8
1979-07-06 06:12:02.190 ,1,0,,0,0.,4.8,0.,4.8,,0,0.,4.8,240.,4.8
1979-07-06 06:12:06.990 ,1,0,,0,0.,4.8,0.,4.8,,0,0.,4.8,256.,4.8
1979-07-06 06:12:11.790 ,1,0,,0,108.,4.8,23.,4.8,,0,0.,4.8,272.,4.8
1979-07-06 06:12:16.590 ,1,0,,0,656.,4.8,144.,4.8,,0,0.,4.8,272.,4.8
1979-07-06 06:12:21.390 ,1,0,,0,656.,4.8,152.,4.8,,0,0.,4.8,272.,4.8
1979-07-06 06:12:26.190 ,1,0,,0,688.,4.8,132.,4.8,,0,0.,4.8,272.,4.8
1979-07-06 06:12:30.990 ,1,0,,0,688.,4.8,156.,4.8,,0,0.,4.8,280.,4.8
1979-07-06 06:12:35.790 ,1,0,,0,544.,4.8,114.,4.8,,0,0.,4.8,256.,4.8
1979-07-06 06:12:40.590 ,1,0,,0,0.,4.8,0.,4.8,,0,0.,4.8,256.,4.8
1979-07-06 06:12:45.390 ,1,0,,0,0.,4.8,0.,4.8,,0,0.,4.8,288.,4.8
1979-07-06 06:12:50.190 ,2,0,,0,0.,4.8,0.,4.8,,0,0.,4.8,252.,4.8
1979-07-06 06:12:54.990 ,2,0,,0,0.,4.8,0.,4.8,,0,0.,4.8,252.,4.8
1979-07-06 06:12:59.790 ,2,0,,0,112.,4.8,30.,4.8,,0,0.,4.8,208.,4.8
1979-07-06 06:13:04.590 ,2,0,,0,608.,4.8,176.,4.8,,0,0.,4.8,180.,4.8
1979-07-06 06:13:09.390 ,2,0,,0,624.,4.8,156.,4.8,,0,0.,4.8,208.,4.8
1979-07-06 06:13:14.190 ,2,0,,0,608.,4.8,160.,4.8,,0,0.,4.8,180.,4.8
1979-07-06 06:13:18.990 ,2,0,,0,608.,4.8,192.,4.8,,0,0.,4.8,196.,4.8
1979-07-06 06:13:23.790 ,2,0,,0,544.,4.8,152.,4.8,,0,0.,4.8,200.,4.8
1979-07-06 06:13:28.590 ,2,0,,0,1.,4.8,0.,4.8,,0,0.,4.8,200.,4.8
1979-07-06 06:13:33.390 ,2,0,,0,0.,4.8,0.,4.8,,0,0.,4.8,216.,4.8
1979-07-06 06:13:38.190 ,3,0,,0,1.,4.8,0.,4.8,,0,0.,4.8,212.,4.8
1979-07-06 06:13:42.990 ,3,0,,0,0.,4.8,0.,4.8,,0,0.,4.8,192.,4.8
1979-07-06 06:13:47.790 ,3,0,,0,78.,4.8,19.,4.8,,0,0.,4.8,140.,4.8
1979-07-06 06:13:52.590 ,3,0,,0,472.,4.8,128.,4.8,,0,0.,4.8,164.,4.8
1979-07-06 06:13:57.390 ,3,0,,0,528.,4.8,148.,4.8,,0,0.,4.8,172.,4.8
1979-07-06 06:14:02.190 ,3,0,,0,544.,4.8,160.,4.8,,0,0.,4.8,168.,4.8
1979-07-06 06:14:06.990 ,3,0,,0,544.,4.8,188.,4.8,,0,0.,4.8,156.,4.8
1979-07-06 06:14:11.790 ,3,0,,0,456.,4.8,140.,4.8,,0,0.,4.8,180.,4.8
1979-07-06 06:14:16.590 ,3,0,,0,0.,4.8,0.,4.8,,0,0.,4.8,180.,4.8
1979-07-06 06:14:21.390 ,3,0,,0,1.,4.8,0.,4.8,,0,0.,4.8,164.,4.8
1979-07-06 06:14:26.190 ,4,0,,0,0.,4.8,0.,4.8,,0,0.,4.8,164.,4.8
1979-07-06 06:14:30.990 ,4,0,,0,1.,4.8,0.,4.8,,0,0.,4.8,160.,4.8
1979-07-06 06:14:35.790 ,4,0,,0,78.,4.8,12.,4.8,,0,0.,4.8,172.,4.8
1979-07-06 06:14:40.590 ,4,0,,0,528.,4.8,136.,4.8,,0,0.,4.8,156.,4.8
1979-07-06 06:14:45.390 ,4,0,,0,528.,4.8,156.,4.8,,0,0.,4.8,180.,4.8
1979-07-06 06:14:50.190 ,4,0,,0,504.,4.8,156.,4.8,,0,0.,4.8,192.,4.8
1979-07-06 06:14:54.990 ,4,0,,0,480.,4.8,172.,4.8,,0,0.,4.8,180.,4.8
1979-07-06 06:14:59.790 ,4,0,,0,448.,4.8,124.,4.8,,0,0.,4.8,188.,4.8
1979-07-06 06:15:04.590 ,4,0,,0,0.,4.8,0.,4.8,,0,0.,4.8,172.,4.8
1979-07-06 06:15:09.390 ,4,0,,0,0.,4.8,0.,4.8,,0,0.,4.8,168.,4.8
1979-07-06 06:15:14.190 ,5,0,,0,0.,4.8,0.,4.8,,0,0.,4.8,184.,4.8
1979-07-06 06:15:18.990 ,5,0,,0,0.,4.8,0.,4.8,,0,0.,4.8,196.,4.8
1979-07-06 06:15:23.790 ,5,0,,0,110.,4.8,28.,4.8,,0,0.,4.8,236.,4.8
1979-07-06 06:15:28.590 ,5,0,,0,736.,4.8,176.,4.8,,0,0.,4.8,228.,4.8
1979-07-06 06:15:33.390 ,5,0,,0,768.,4.8,188.,4.8,,0,0.,4.8,216.,4.8
1979-07-06 06:15:38.190 ,5,0,,0,720.,4.8,172.,4.8,,0,0.,4.8,240.,4.8
1979-07-06 06:15:42.990 ,5,0,,0,688.,4.8,172.,4.8,,0,0.,4.8,240.,4.8
1979-07-06 06:15:47.790 ,5,0,,0,624.,4.8,152.,4.8,,0,0.,4.8,228.,4.8
1979-07-06 06:15:52.590 ,5,0,,0,0.,4.8,0.,4.8,,0,0.,4.8,216.,4.8
1979-07-06 06:15:57.390 ,5,0,,0,0.,4.8,0.,4.8,,0,0.,4.8,224.,4.8
1979-07-06 06:16:02.190 ,6,0,,0,0.,4.8,0.,4.8,,0,0.,4.8,240.,4.8
1979-07-06 06:16:06.990 ,6,0,,0,1.,4.8,0.,4.8,,0,0.,4.8,240.,4.8
1979-07-06 06:16:11.790 ,6,0,,0,128.,4.8,38.,4.8,,0,0.,4.8,236.,4.8
1979-07-06 06:16:16.590 ,6,0,,0,784.,4.8,196.,4.8,,0,0.,4.8,240.,4.8
1979-07-06 06:16:21.390 ,6,0,,0,800.,4.8,204.,4.8,,0,0.,4.8,236.,4.8
1979-07-06 06:16:26.190 ,6,0,,0,752.,4.8,184.,4.8,,0,0.,4.8,256.,4.8
1979-07-06 06:16:30.990 ,6,0,,0,752.,4.8,184.,4.8,,0,0.,4.8,232.,4.8
1979-07-06 06:16:35.790 ,6,0,,0,592.,4.8,132.,4.8,,0,0.,4.8,236.,4.8
1979-07-06 06:16:40.590 ,6,0,,0,0.,4.8,0.,4.8,,0,0.,4.8,256.,4.8
1979-07-06 06:16:45.390 ,6,0,,0,0.,4.8,0.,4.8,,0,0.,4.8,252.,4.8
1979-07-06 06:16:50.190 ,7,0,,0,0.,4.8,0.,4.8,,0,0.,4.8,264.,4.8
1979-07-06 06:16:54.990 ,7,0,,0,0.,4.8,0.,4.8,,0,0.,4.8,164.,4.8
1979-07-06 06:16:59.790 ,7,0,,0,3.,4.8,0.,4.8,,0,0.,4.8,0.,4.8
1979-07-06 06:17:04.590 ,7,0,,0,12.,4.8,0.,4.8,,0,0.,4.8,1.,4.8
1979-07-06 06:17:09.390 ,7,0,,0,12.,4.8,0.,4.8,,0,0.,4.8,0.,4.8
1979-07-06 06:17:14.190 ,7,0,,0,10.,4.8,0.,4.8,,0,0.,4.8,0.,4.8
1979-07-06 06:17:18.990 ,7,0,,0,12.,4.8,0.,4.8,,0,0.,4.8,0.,4.8
1979-07-06 06:17:23.790 ,7,0,,0,7.,4.8,0.,4.8,,0,0.,4.8,0.,4.8
1979-07-06 06:17:28.590 ,7,0,,0,0.,4.8,0.,4.8,,0,0.,4.8,0.,4.8
1979-07-06 06:17:33.390 ,7,0,,0,0.,4.8,0.,4.8,,0,0.,4.8,0.,4.8
1979-07-06 06:17:38.190 ,7,0,,0,0.,4.8,0.,4.8,,0,0.,4.8,0.,4.8
1979-07-06 06:17:42.990 ,7,0,,0,0.,4.8,0.,4.8,,0,0.,4.8,0.,4.8
1979-07-06 06:17:47.790 ,7,0,,0,2.,4.8,0.,4.8,,0,0.,4.8,0.,4.8
1979-07-06 06:17:52.590 ,7,0,,0,4.,4.8,0.,4.8,,0,0.,4.8,0.,4.8
1979-07-06 06:17:57.390 ,7,0,,0,10.,4.8,0.,4.8,,0,0.,4.8,0.,4.8
1979-07-06 06:18:02.190 ,7,0,,0,9.,4.8,0.,4.8,,0,0.,4.8,0.,4.8
1979-07-06 06:18:06.990 ,7,0,,0,10.,4.8,0.,4.8,,0,0.,4.8,1.,4.8
1979-07-06 06:18:11.790 ,7,0,,0,12.,4.8,0.,4.8,,0,0.,4.8,0.,4.8
1979-07-06 06:18:16.590 ,7,0,,0,0.,4.8,0.,4.8,,0,0.,4.8,0.,4.8
1979-07-06 06:18:21.390 ,7,0,,0,0.,4.8,0.,4.8,,0,0.,4.8,0.,4.8
1979-07-06 06:18:26.190 ,6,0,,0,0.,4.8,0.,4.8,,0,0.,4.8,0.,4.8
1979-07-06 06:18:30.990 ,6,0,,0,0.,4.8,0.,4.8,,0,0.,4.8,84.,4.8
1979-07-06 06:18:35.790 ,6,0,,0,152.,4.8,33.,4.8,,0,0.,4.8,256.,4.8
1979-07-06 06:18:40.590 ,6,0,,0,800.,4.8,188.,4.8,,0,0.,4.8,280.,4.8
1979-07-06 06:18:45.390 ,6,0,,0,912.,4.8,216.,4.8,,0,0.,4.8,296.,4.8
1979-07-06 06:18:50.190 ,6,0,,0,864.,4.8,212.,4.8,,0,0.,4.8,288.,4.8
1979-07-06 06:18:54.990 ,6,0,,0,848.,4.8,192.,4.8,,0,0.,4.8,264.,4.8
1979-07-06 06:18:59.790 ,6,0,,0,736.,4.8,176.,4.8,,0,0.,4.8,304.,4.8
1979-07-06 06:19:04.590 ,6,0,,0,0.,4.8,0.,4.8,,0,0.,4.8,304.,4.8
1979-07-06 06:19:09.390 ,6,0,,0,0.,4.8,0.,4.8,,0,0.,4.8,288.,4.8
1979-07-06 06:19:14.190 ,5,0,,0,0.,4.8,0.,4.8,,0,0.,4.8,304.,4.8
1979-07-06 06:19:18.990 ,5,0,,0,0.,4.8,0.,4.8,,0,0.,4.8,304.,4.8
1979-07-06 06:19:23.790 ,5,0,,0,116.,4.8,28.,4.8,,0,0.,4.8,272.,4.8
1979-07-06 06:19:28.590 ,5,0,,0,768.,4.8,180.,4.8,,0,0.,4.8,312.,4.8
1979-07-06 06:19:33.390 ,5,0,,0,832.,4.8,184.,4.8,,0,0.,4.8,288.,4.8
1979-07-06 06:19:38.190 ,5,0,,0,816.,4.8,192.,4.8,,0,0.,4.8,296.,4.8
1979-07-06 06:19:42.990 ,5,0,,0,848.,4.8,212.,4.8,,0,0.,4.8,328.,4.8
1979-07-06 06:19:47.790 ,5,0,,0,656.,4.8,164.,4.8,,0,0.,4.8,304.,4.8
1979-07-06 06:19:52.590 ,5,0,,0,1.,4.8,0.,4.8,,0,0.,4.8,344.,4.8
1979-07-06 06:19:57.390 ,5,0,,0,0.,4.8,0.,4.8,,0,0.,4.8,344.,4.8
1979-07-06 06:20:02.190 ,4,0,,0,0.,4.8,0.,4.8,,0,0.,4.8,336.,4.8
1979-07-06 06:20:06.990 ,4,0,,0,0.,4.8,0.,4.8,,0,0.,4.8,352.,4.8
1979-07-06 06:20:11.790 ,4,0,,0,160.,4.8,46.,4.8,,0,0.,4.8,368.,4.8
1979-07-06 06:20:16.590 ,4,0,,0,976.,4.8,232.,4.8,,0,0.,4.8,424.,4.8
1979-07-06 06:20:21.390 ,4,0,,0,992.,4.8,280.,4.8,,0,0.,4.8,408.,4.8
1979-07-06 06:20:26.190 ,4,0,,0,928.,4.8,216.,4.8,,0,0.,4.8,384.,4.8
1979-07-06 06:20:30.990 ,4,0,,0,1008.,4.8,244.,4.8,,0,0.,4.8,400.,4.8
1979-07-06 06:20:35.790 ,4,0,,0,800.,4.8,188.,4.8,,0,0.,4.8,424.,4.8
1979-07-06 06:20:40.590 ,4,0,,0,0.,4.8,0.,4.8,,0,0.,4.8,448.,4.8
1979-07-06 06:20:45.390 ,4,0,,0,0.,4.8,0.,4.8,,0,0.,4.8,464.,4.8
1979-07-06 06:20:50.190 ,3,0,,0,0.,4.8,0.,4.8,,0,0.,4.8,456.,4.8
1979-07-06 06:20:54.990 ,3,0,,0,0.,4.8,0.,4.8,,0,0.,4.8,384.,4.8
1979-07-06 06:20:59.790 ,3,0,,0,144.,4.8,26.,4.8,,0,0.,4.8,236.,4.8
1979-07-06 06:21:04.590 ,3,0,,0,912.,4.8,172.,4.8,,0,0.,4.8,228.,4.8
1979-07-06 06:21:09.390 ,3,0,,0,880.,4.8,152.,4.8,,0,0.,4.8,228.,4.8
1979-07-06 06:21:14.190 ,3,0,,0,864.,4.8,156.,4.8,,0,0.,4.8,244.,4.8
1979-07-06 06:21:18.990 ,3,0,,0,928.,4.8,144.,4.8,,0,0.,4.8,252.,4.8
1979-07-06 06:21:23.790 ,3,0,,0,800.,4.8,136.,4.8,,0,0.,4.8,288.,4.8
1979-07-06 06:21:28.590 ,3,0,,0,0.,4.8,0.,4.8,,0,0.,4.8,280.,4.8
1979-07-06 06:21:33.390 ,3,0,,0,0.,4.8,0.,4.8,,0,0.,4.8,304.,4.8
1979-07-06 06:21:38.190 ,2,0,,0,1.,4.8,0.,4.8,,0,0.,4.8,272.,4.8
1979-07-06 06:21:42.990 ,2,0,,0,0.,4.8,0.,4.8,,0,0.,4.8,248.,4.8
1979-07-06 06:21:47.790 ,2,0,,0,116.,4.8,18.,4.8,,0,0.,4.8,160.,4.8
1979-07-06 06:21:52.590 ,2,0,,0,624.,4.8,94.,4.8,,0,0.,4.8,188.,4.8
1979-07-06 06:21:57.390 ,2,0,,0,624.,4.8,104.,4.8,,0,0.,4.8,192.,4.8
1979-07-06 06:22:02.190 ,2,0,,0,656.,4.8,94.,4.8,,0,0.,4.8,184.,4.8
1979-07-06 06:22:06.990 ,2,0,,0,592.,4.8,98.,4.8,,0,0.,4.8,204.,4.8
1979-07-06 06:22:11.790 ,2,0,,0,512.,4.8,96.,4.8,,0,0.,4.8,180.,4.8
1979-07-06 06:22:16.590 ,2,0,,0,0.,4.8,0.,4.8,,0,0.,4.8,180.,4.8
1979-07-06 06:22:21.390 ,2,0,,0,1.,4.8,0.,4.8,,0,0.,4.8,196.,4.8
1979-07-06 06:22:26.190 ,1,0,,0,0.,4.8,0.,4.8,,0,0.,4.8,200.,4.8
1979-07-06 06:22:30.990 ,1,0,,0,0.,4.8,0.,4.8,,0,0.,4.8,164.,4.8
1979-07-06 06:22:35.790 ,1,0,,0,84.,4.8,16.,4.8,,0,0.,4.8,136.,4.8
1979-07-06 06:22:40.590 ,1,0,,0,432.,4.8,70.,4.8,,0,0.,4.8,160.,4.8
1979-07-06 06:22:45.390 ,1,0,,0,400.,4.8,70.,4.8,,0,0.,4.8,132.,4.8
1979-07-06 06:22:50.190 ,1,0,,0,352.,4.8,63.,4.8,,0,0.,4.8,100.,4.8
1979-07-06 06:22:54.990 ,1,0,,0,392.,4.8,74.,4.8,,0,0.,4.8,112.,4.8
1979-07-06 06:22:59.790 ,1,0,,0,344.,4.8,61.,4.8,,0,0.,4.8,144.,4.8
1979-07-06 06:23:04.590 ,1,0,,0,0.,4.8,0.,4.8,,0,0.,4.8,136.,4.8
1979-07-06 06:23:09.390 ,1,0,,0,0.,4.8,0.,4.8,,0,0.,4.8,120.,4.8
1979-07-06 06:23:14.190 ,0,0,,0,0.,4.8,0.,4.8,,0,0.,4.8,114.,4.8
1979-07-06 06:23:18.990 ,0,0,,0,1.,4.8,0.,4.8,,0,0.,4.8,112.,4.8
1979-07-06 06:23:23.790 ,0,0,,0,72.,4.8,11.,4.8,,0,0.,4.8,104.,4.8
1979-07-06 06:23:28.590 ,0,0,,0,408.,4.8,82.,4.8,,0,0.,4.8,116.,4.8
1979-07-06 06:23:33.390 ,0,0,,0,456.,4.8,82.,4.8,,0,0.,4.8,108.,4.8
1979-07-06 06:23:38.190 ,0,0,,0,432.,4.8,76.,4.8,,0,0.,4.8,118.,4.8
1979-07-06 06:23:42.990 ,0,0,,0,456.,4.8,80.,4.8,,0,0.,4.8,108.,4.8
1979-07-06 06:23:47.790 ,0,0,,0,344.,4.8,59.,4.8,,0,0.,4.8,118.,4.8
1979-07-06 06:23:52.590 ,0,0,,0,1.,4.8,0.,4.8,,0,0.,4.8,118.,4.8
1979-07-06 06:23:57.390 ,0,0,,0,0.,4.8,0.,4.8,,0,0.,4.8,106.,4.8
1979-07-06 06:24:02.190 ,0,0,,0,0.,4.8,0.,4.8,,0,0.,4.8,120.,4.8
1979-07-06 06:24:06.990 ,0,0,,0,0.,4.8,0.,4.8,,0,0.,4.8,106.,4.8
1979-07-06 06:24:11.790 ,0,0,,0,68.,4.8,17.,4.8,,0,0.,4.8,120.,4.8
1979-07-06 06:24:16.590 ,0,0,,0,384.,4.8,61.,4.8,,0,0.,4.8,104.,4.8
1979-07-06 06:24:21.390 ,0,0,,0,384.,4.8,64.,4.8,,0,0.,4.8,110.,4.8
1979-07-06 06:24:26.190 ,0,0,,0,384.,4.8,66.,4.8,,0,0.,4.8,126.,4.8
1979-07-06 06:24:30.990 ,0,0,,0,384.,4.8,52.,4.8,,0,0.,4.8,108.,4.8
1979-07-06 06:24:35.790 ,0,0,,0,344.,4.8,53.,4.8,,0,0.,4.8,126.,4.8
1979-07-06 06:24:40.590 ,0,0,,0,0.,4.8,0.,4.8,,0,0.,4.8,114.,4.8
1979-07-06 06:24:45.390 ,0,0,,0,0.,4.8,0.,4.8,,0,0.,4.8,124.,4.8
1979-07-06 06:24:50.190 ,1,0,,0,0.,4.8,0.,4.8,,0,0.,4.8,110.,4.8
1979-07-06 06:24:54.990 ,1,0,,0,1.,4.8,0.,4.8,,0,0.,4.8,112.,4.8
1979-07-06 06:24:59.790 ,1,0,,0,56.,4.8,8.,4.8,,0,0.,4.8,104.,4.8
1979-07-06 06:25:04.590 ,1,0,,0,328.,4.8,53.,4.8,,0,0.,4.8,120.,4.8
1979-07-06 06:25:09.390 ,1,0,,0,328.,4.8,62.,4.8,,0,0.,4.8,110.,4.8
1979-07-06 06:25:14.190 ,1,0,,0,312.,4.8,60.,4.8,,0,0.,4.8,104.,4.8
1979-07-06 06:25:18.990 ,1,0,,0,344.,4.8,57.,4.8,,0,0.,4.8,118.,4.8
1979-07-06 06:25:23.790 ,1,0,,0,288.,4.8,37.,4.8,,0,0.,4.8,98.,4.8
1979-07-06 06:25:28.590 ,1,0,,0,1.,4.8,0.,4.8,,0,0.,4.8,108.,4.8
1979-07-06 06:25:33.390 ,1,0,,0,0.,4.8,0.,4.8,,0,0.,4.8,92.,4.8
1979-07-06 06:25:38.190 ,2,0,,0,0.,4.8,0.,4.8,,0,0.,4.8,96.,4.8
1979-07-06 06:25:42.990 ,2,0,,0,2.,4.8,0.,4.8,,0,0.,4.8,128.,4.8
1979-07-06 06:25:47.790 ,2,0,,0,82.,4.8,16.,4.8,,0,0.,4.8,156.,4.8
1979-07-06 06:25:52.590 ,2,0,,0,456.,4.8,66.,4.8,,0,0.,4.8,152.,4.8
1979-07-06 06:25:57.390 ,2,0,,0,472.,4.8,86.,4.8,,0,0.,4.8,144.,4.8
1979-07-06 06:26:02.190 ,2,0,,0,424.,4.8,80.,4.8,,0,0.,4.8,160.,4.8
1979-07-06 06:26:06.990 ,2,0,,0,440.,4.8,72.,4.8,,0,0.,4.8,136.,4.8
1979-07-06 06:26:11.790 ,2,0,,0,392.,4.8,59.,4.8,,0,0.,4.8,144.,4.8
1979-07-06 06:26:16.590 ,2,0,,0,0.,4.8,0.,4.8,,0,0.,4.8,164.,4.8
1979-07-06 06:26:21.390 ,2,0,,0,0.,4.8,0.,4.8,,0,0.,4.8,126.,4.8
1979-07-06 06:26:26.190 ,3,0,,0,0.,4.8,0.,4.8,,0,0.,4.8,122.,4.8
1979-07-06 06:26:30.990 ,3,0,,0,1.,4.8,0.,4.8,,0,0.,4.8,156.,4.8
1979-07-06 06:26:35.790 ,3,0,,0,92.,4.8,17.,4.8,,0,0.,4.8,184.,4.8
1979-07-06 06:26:40.590 ,3,0,,0,592.,4.8,108.,4.8,,0,0.,4.8,200.,4.8
1979-07-06 06:26:45.390 ,3,0,,0,592.,4.8,100.,4.8,,0,0.,4.8,188.,4.8
1979-07-06 06:26:50.190 ,3,0,,0,592.,4.8,106.,4.8,,0,0.,4.8,196.,4.8
1979-07-06 06:26:54.990 ,3,0,,0,608.,4.8,92.,4.8,,0,0.,4.8,208.,4.8
1979-07-06 06:26:59.790 ,3,0,,0,504.,4.8,92.,4.8,,0,0.,4.8,184.,4.8
1979-07-06 06:27:04.590 ,3,0,,0,0.,4.8,0.,4.8,,0,0.,4.8,176.,4.8
1979-07-06 06:27:09.390 ,3,0,,0,0.,4.8,0.,4.8,,0,0.,4.8,172.,4.8
1979-07-06 06:27:14.190 ,4,0,,0,0.,4.8,0.,4.8,,0,0.,4.8,184.,4.8
1979-07-06 06:27:18.990 ,4,0,,0,0.,4.8,0.,4.8,,0,0.,4.8,188.,4.8
1979-07-06 06:27:23.790 ,4,0,,0,116.,4.8,15.,4.8,,0,0.,4.8,296.,4.8
1979-07-06 06:27:28.590 ,4,0,,0,912.,4.8,184.,4.8,,0,0.,4.8,288.,4.8
1979-07-06 06:27:33.390 ,4,0,,0,896.,4.8,168.,4.8,,0,0.,4.8,264.,4.8
1979-07-06 06:27:38.190 ,4,0,,0,928.,4.8,184.,4.8,,0,0.,4.8,280.,4.8
1979-07-06 06:27:42.990 ,4,0,,0,912.,4.8,184.,4.8,,0,0.,4.8,280.,4.8
1979-07-06 06:27:47.790 ,4,0,,0,736.,4.8,144.,4.8,,0,0.,4.8,288.,4.8
1979-07-06 06:27:52.590 ,4,0,,0,1.,4.8,0.,4.8,,0,0.,4.8,280.,4.8
1979-07-06 06:27:57.390 ,4,0,,0,0.,4.8,0.,4.8,,0,0.,4.8,280.,4.8
1979-07-06 06:28:02.190 ,5,0,,0,0.,4.8,0.,4.8,,0,0.,4.8,240.,4.8
1979-07-06 06:28:06.990 ,5,0,,0,0.,4.8,0.,4.8,,0,0.,4.8,236.,4.8
1979-07-06 06:28:11.790 ,5,0,,0,126.,4.8,24.,4.8,,0,0.,4.8,248.,4.8
1979-07-06 06:28:16.590 ,5,0,,0,704.,4.8,132.,4.8,,0,0.,4.8,224.,4.8
1979-07-06 06:28:21.390 ,5,0,,0,720.,4.8,118.,4.8,,0,0.,4.8,212.,4.8
1979-07-06 06:28:26.190 ,5,0,,0,704.,4.8,116.,4.8,,0,0.,4.8,232.,4.8
1979-07-06 06:28:30.990 ,5,0,,0,672.,4.8,118.,4.8,,0,0.,4.8,224.,4.8